[[{"header":{"parameterUnit":"m.s-1","parameterCategory":1,"la1":30.2991,"la2":30.254,"lo1":-89.0895,"lo2":-89.0444,"dy":0.0017,"dx":0.0017,"nx":28,"ny":28,"refTime":"2024-05-03T21:00:00:Z","depth":0,"parameterNumber":2,"parameterNumberName":"U-component_of_WINDS"},"data":[0,0,0,0,0,0,0,0,0,0,0,0,0,0,0,0,0,0,0,0,0,0,0,0,0,0,0,0,0,0,0,0,0,0,0,0,0,0,0,0,0,0,0,0,0,0,0,0,0,0,0,0,0,0,0,0,0,0,1.5418,1.5414,0,1.5039,1.5035,1.5031,1.4816,1.4815,1.4814,1.4814,1.443,1.4421,1.4412,0,0,0,0,0,0,0,0,0,0,0,0,0,1.5959,1.595,1.5418,1.5413,1.5409,1.504,1.5035,1.5029,1.4816,1.4815,1.4814,1.4813,1.4434,1.4422,1.4411,0,0,0,0,0,0,0,0,0,0,0,0,0,1.5667,1.5947,1.5419,1.5258,1.5239,1.5041,1.5034,1.5028,1.4816,1.4815,1.4814,1.4813,1.4437,1.4423,1.4409,1.4343,0,0,1.4366,1.436,0,0,0,0,0,0,0,0,1.5684,1.5647,1.5286,1.5268,1.5248,1.4973,1.5084,1.4799,1.4817,1.4977,1.4814,1.4813,1.4612,1.4584,1.4515,1.4325,1.4309,1.4364,1.4356,1.435,1.4346,0,0,0,0,0,0,0,1.5704,1.5662,1.5268,1.5281,1.5258,1.5205,1.5162,1.5029,1.4806,1.4963,1.4947,1.4904,1.4602,1.4529,1.4505,1.4303,1.4365,1.4352,1.4343,1.4338,1.4038,1.4039,0,0,0,0,0,0,1.575,1.5681,1.528,1.5257,1.5467,1.5196,1.5148,1.5063,1.4807,1.4766,1.4906,1.4896,1.4554,1.4521,1.449,1.4394,1.435,1.4336,1.4328,1.4037,1.4038,1.4039,0,0,0,0,0,0,1.5762,1.5716,1.5295,1.5464,1.5406,1.5188,1.5094,1.5056,1.4983,1.4763,1.4723,1.4873,1.4552,1.451,1.438,1.4378,1.433,1.4317,1.4037,1.4038,1.4038,1.4204,0,0,0,0,0,0,1.5779,1.5722,1.5694,1.5465,1.5398,1.5192,1.5093,1.5049,1.4959,1.4942,1.4722,1.4684,1.4548,1.4403,1.4367,1.4358,1.4306,1.4036,1.4037,1.4038,1.4198,1.4211,1.4222,0,0,0,0,0,1.5799,1.5758,1.5694,1.5647,1.5359,1.5193,1.5154,1.4998,1.496,1.493,1.4788,1.4691,1.4385,1.4392,1.4349,1.4336,1.4035,1.4037,1.4038,1.4193,1.4208,1.4221,0,0,0,0,0,0,1.5994,1.5725,1.5651,1.5534,1.5388,1.5157,1.5115,1.5019,1.4882,1.4872,1.4685,1.4637,1.4525,1.4417,1.443,1.4257,1.4199,1.4192,1.4332,1.4344,1.4356,1.4385,1.4294,0,0,0,0,0,1.6024,1.591,1.5681,1.56,1.553,1.5336,1.5257,1.5149,1.499,1.4927,1.4776,1.4627,1.4496,1.4414,1.4282,1.4181,1.4129,1.4151,1.4163,1.4173,1.417,1.4106,1.4113,1.4043,1.4043,1.4043,0,0,1.6084,1.5922,1.5862,1.5635,1.5509,1.5396,1.5285,1.5171,1.5085,1.491,1.4777,1.4662,1.4482,1.4366,1.4308,1.4273,1.4177,1.4175,1.4185,1.4175,1.4109,1.4115,1.4122,1.4044,1.4044,1.4044,0,0,1.6135,1.6002,1.5918,1.5793,1.5602,1.5473,1.5454,1.5235,1.5151,1.5015,1.4881,1.4776,1.4556,1.4433,1.4342,1.4344,1.425,1.4307,1.4369,1.4309,1.4315,1.4319,1.4319,1.4321,1.4304,1.4304,1.4304,0,1.6234,1.6057,1.5889,1.578,1.5684,1.5519,1.5433,1.532,1.5098,1.5035,1.4999,1.4717,1.4585,1.4437,1.4437,1.4369,1.4341,1.4331,1.4327,1.433,1.4331,1.4329,1.4329,1.4312,1.4311,1.431,1.431,0,1.6188,1.6068,1.6023,1.581,1.5708,1.5613,1.543,1.5347,1.5247,1.5122,1.4985,1.482,1.4651,1.4607,1.451,1.4445,1.4429,1.4363,1.4301,1.4348,1.4343,1.4341,1.4324,1.4321,1.4318,1.4316,0,0,1.6354,1.6046,1.6033,1.5932,1.5709,1.5612,1.5509,1.5341,1.5274,1.5125,1.5034,1.485,1.4786,1.4683,1.4569,1.4517,1.4528,1.4456,1.4449,1.4475,1.4445,1.4497,1.4499,1.4464,1.4463,1.4462,1.446,0,1.6373,1.6177,1.6021,1.5884,1.577,1.561,1.5519,1.5373,1.5253,1.5139,1.5006,1.4878,1.4804,1.474,1.4682,1.454,1.452,1.4538,1.4377,1.4373,1.4427,1.4496,1.455,1.4556,1.4457,1.4457,1.4456,0,1.6369,1.6223,1.6075,1.5861,1.5807,1.5728,1.5561,1.5454,1.5284,1.52,1.5084,1.4965,1.4848,1.4798,1.4634,1.465,1.4574,1.4495,1.4491,1.447,1.4418,1.4477,1.4554,1.4556,1.4452,1.4452,1.4452,0,1.6504,1.6272,1.6152,1.6071,1.5818,1.5767,1.5659,1.5487,1.5396,1.525,1.5189,1.5033,1.4947,1.4829,1.4671,1.4649,1.4524,1.446,1.4451,1.4455,1.4432,1.4436,1.4499,1.4385,1.4385,1.4385,1.4385,0,1.6541,1.6457,1.6209,1.6136,1.6035,1.5857,1.5763,1.5642,1.549,1.539,1.5243,1.5153,1.495,1.4835,1.4712,1.4594,1.4557,1.4486,1.4454,1.4499,1.4508,1.4447,1.4443,1.4385,1.4385,1.4385,1.4385,0,1.6676,1.6506,1.6365,1.6136,1.6077,1.6013,1.5817,1.574,1.561,1.5486,1.5447,1.5244,1.5101,1.4932,1.4735,1.4651,1.4545,1.4497,1.4602,1.4584,1.4583,1.4586,1.461,1.4603,1.4496,1.4497,1.4498,0,1.6711,1.6642,1.6405,1.6326,1.6222,1.6099,1.6003,1.5824,1.5732,1.5531,1.5478,1.5324,1.519,1.497,1.4806,1.4654,1.4601,1.462,1.4578,1.4624,1.4601,1.4607,1.4598,1.4632,1.4634,1.4636,1.4637,0,1.6791,1.671,1.6578,1.6416,1.6306,1.6171,1.6029,1.5974,1.5766,1.5669,1.552,1.5417,1.5214,1.5062,1.4889,1.4778,1.4673,1.4651,1.4641,1.4686,1.475,1.4714,1.4633,1.4652,1.4651,1.4649,1.4649,1.4648,1.6876,1.6806,1.6628,1.6485,1.6359,1.6229,1.6145,1.6003,1.5875,1.5695,1.5597,1.545,1.528,1.5035,1.4929,1.4811,1.4775,1.476,1.4756,1.4755,1.4768,1.4768,1.4779,1.4779,1.4778,1.4777,1.4777,0,1.6948,1.6825,1.6695,1.65,1.6388,1.6296,1.6134,1.6046,1.5918,1.5767,1.5638,1.5466,1.5318,1.5141,1.4981,1.4921,1.4869,1.4885,1.4888,1.4864,1.4811,1.4835,1.493,1.493,1.493,1.493,1.493,1.493,1.6973,1.6849,1.6746,1.6558,1.6435,1.6288,1.6203,1.6083,1.5961,1.5775,1.565,1.5535,1.5372,1.5199,1.5059,1.501,1.4958,1.4989,1.4927,1.4881,1.4868,1.4855,1.4877,1.4979,1.4979,1.4989,1.4989,1.4989]},{"header":{"parameterUnit":"m.s-1","parameterCategory":1,"la1":30.2991,"la2":30.254,"lo1":-89.0895,"lo2":-89.0444,"dy":0.0017,"dx":0.0017,"nx":28,"ny":28,"refTime":"2024-05-03T21:00:00:Z","depth":0,"parameterNumber":3,"parameterNumberName":"V-component_of_WINDS"},"data":[0,0,0,0,0,0,0,0,0,0,0,0,0,0,0,0,0,0,0,0,0,0,0,0,0,0,0,0,0,0,0,0,0,0,0,0,0,0,0,0,0,0,0,0,0,0,0,0,0,0,0,0,0,0,0,0,0,0,1.7789,1.779,0,1.793,1.7931,1.7933,1.8023,1.8024,1.8024,1.8025,1.8169,1.8172,1.8175,0,0,0,0,0,0,0,0,0,0,0,0,0,1.7597,1.76,1.7789,1.779,1.7792,1.7929,1.7931,1.7933,1.8023,1.8024,1.8025,1.8025,1.8168,1.8172,1.8176,0,0,0,0,0,0,0,0,0,0,0,0,0,1.7703,1.7601,1.7788,1.7854,1.7861,1.7929,1.7931,1.7934,1.8023,1.8024,1.8025,1.8025,1.8166,1.8171,1.8176,1.819,0,0,1.8191,1.8193,0,0,0,0,0,0,0,0,1.7697,1.771,1.7842,1.7849,1.7858,1.796,1.7917,1.802,1.8023,1.7961,1.8025,1.8026,1.8099,1.8109,1.8134,1.8197,1.8203,1.8192,1.8195,1.8197,1.8198,0,0,0,0,0,0,0,1.769,1.7705,1.7844,1.7844,1.7853,1.7876,1.7892,1.7937,1.8024,1.7967,1.7974,1.7989,1.8103,1.8129,1.8138,1.8205,1.8192,1.8196,1.8199,1.8201,1.8288,1.8288,0,0,0,0,0,0,1.7672,1.7698,1.784,1.7849,1.7778,1.7878,1.7896,1.7926,1.8023,1.8039,1.7988,1.7993,1.812,1.8132,1.8143,1.8168,1.8197,1.8202,1.8204,1.8289,1.8288,1.8288,0,0,0,0,0,0,1.7668,1.7684,1.7834,1.7775,1.7796,1.7881,1.7913,1.7928,1.7954,1.804,1.8056,1.7999,1.8121,1.8136,1.8178,1.8174,1.8204,1.8208,1.829,1.8289,1.8288,1.8215,0,0,0,0,0,0,1.7662,1.7682,1.7688,1.7775,1.7799,1.7867,1.7913,1.7931,1.7963,1.797,1.8054,1.8068,1.8123,1.817,1.8183,1.8181,1.8212,1.8291,1.8289,1.8288,1.8219,1.8212,1.8206,0,0,0,0,0,1.7655,1.7662,1.7688,1.7705,1.7809,1.7866,1.788,1.7943,1.7962,1.7969,1.8024,1.8066,1.8172,1.8174,1.8189,1.8188,1.8291,1.829,1.8288,1.8221,1.8213,1.8206,0,0,0,0,0,0,1.7572,1.7674,1.7705,1.774,1.7794,1.7881,1.7892,1.7932,1.7981,1.7986,1.8062,1.808,1.8114,1.8155,1.8156,1.8208,1.8236,1.8238,1.818,1.8173,1.8167,1.8158,1.8216,0,0,0,0,0,1.7557,1.7596,1.7683,1.7706,1.7731,1.7807,1.7834,1.7878,1.7937,1.796,1.8018,1.8073,1.812,1.8148,1.8195,1.8224,1.8245,1.8231,1.8225,1.822,1.8221,1.8241,1.8236,1.8283,1.8283,1.8283,0,0,1.7528,1.7589,1.7609,1.7691,1.7738,1.7776,1.7825,1.7864,1.7893,1.7966,1.801,1.8054,1.8121,1.8157,1.8175,1.8192,1.8212,1.8218,1.8213,1.8217,1.8239,1.8234,1.823,1.8282,1.8282,1.8282,0,0,1.7496,1.7545,1.757,1.7616,1.7687,1.7737,1.7743,1.7825,1.7858,1.7903,1.7958,1.7994,1.8071,1.8117,1.8151,1.8135,1.8176,1.8148,1.8117,1.8136,1.8132,1.8129,1.8126,1.8123,1.8149,1.8148,1.8148,0,1.7451,1.7512,1.7578,1.7614,1.7648,1.7716,1.7742,1.7783,1.7865,1.7888,1.7905,1.8004,1.8054,1.8102,1.8099,1.8123,1.8133,1.814,1.8127,1.8125,1.8124,1.8121,1.8119,1.8145,1.8145,1.8146,1.8146,0,1.7454,1.7495,1.7507,1.7585,1.7621,1.7651,1.7722,1.775,1.779,1.7839,1.7884,1.7946,1.8007,1.8022,1.8061,1.8076,1.8084,1.8113,1.8144,1.8114,1.8113,1.8113,1.814,1.8141,1.8142,1.8143,0,0,1.7374,1.7489,1.7492,1.753,1.7612,1.7646,1.7679,1.7739,1.7763,1.7816,1.7848,1.7911,1.7939,1.7977,1.8022,1.8037,1.8024,1.8065,1.8068,1.8057,1.8046,1.8025,1.8023,1.805,1.805,1.805,1.8041,0,1.7355,1.742,1.7481,1.7524,1.7564,1.7628,1.7657,1.7711,1.7757,1.7797,1.7848,1.7893,1.7925,1.7948,1.7967,1.8021,1.8023,1.8022,1.8081,1.8082,1.8064,1.8022,1.8,1.7988,1.8041,1.8041,1.8041,0,1.7343,1.7395,1.7442,1.7522,1.7541,1.7567,1.7628,1.7665,1.7727,1.776,1.7802,1.7849,1.7888,1.7913,1.7968,1.7967,1.7994,1.8024,1.8025,1.8035,1.8061,1.8032,1.7986,1.7984,1.804,1.804,1.804,0,1.7282,1.7364,1.7403,1.7433,1.7527,1.7543,1.7583,1.7647,1.7679,1.7732,1.7754,1.781,1.7841,1.7884,1.7945,1.7957,1.7995,1.8024,1.8024,1.8022,1.803,1.8029,1.7989,1.8044,1.8044,1.8044,1.8044,0,1.7256,1.7283,1.7378,1.7402,1.7434,1.7503,1.7533,1.7578,1.7634,1.7669,1.7727,1.7758,1.7836,1.7876,1.7924,1.7964,1.7977,1.8005,1.8018,1.8001,1.7998,1.8021,1.8025,1.8044,1.8044,1.8044,1.8044,0,1.7195,1.7259,1.7307,1.7392,1.7414,1.7434,1.7507,1.7533,1.7582,1.7625,1.7639,1.7716,1.7766,1.7831,1.7902,1.7935,1.7969,1.7988,1.7948,1.7956,1.7953,1.7953,1.7929,1.793,1.7981,1.798,1.798,0,1.7175,1.7197,1.7285,1.7313,1.7351,1.7394,1.7429,1.7497,1.753,1.7603,1.7621,1.7676,1.7724,1.7802,1.7864,1.7919,1.7941,1.7928,1.7949,1.7932,1.7943,1.7942,1.7945,1.7923,1.7922,1.7922,1.7921,0,1.7133,1.7164,1.7211,1.727,1.7309,1.7358,1.741,1.7429,1.7508,1.7542,1.7595,1.7632,1.7705,1.7759,1.7822,1.7863,1.7906,1.7914,1.7917,1.7901,1.7878,1.7892,1.7936,1.7914,1.7915,1.7916,1.7916,1.7916,1.7094,1.7117,1.7183,1.7234,1.728,1.7327,1.7357,1.7409,1.7455,1.752,1.7557,1.7609,1.7672,1.7761,1.78,1.7842,1.7858,1.7862,1.7864,1.7864,1.786,1.7869,1.7854,1.7854,1.7854,1.7854,1.7855,0,1.7057,1.7103,1.7149,1.722,1.726,1.7296,1.7355,1.7386,1.7431,1.7486,1.7533,1.7594,1.7647,1.7713,1.7771,1.7792,1.7813,1.7805,1.7805,1.7814,1.7841,1.7834,1.7787,1.7787,1.7787,1.7787,1.7787,1.7787,1.7043,1.7085,1.7124,1.719,1.7235,1.7287,1.7318,1.7362,1.7407,1.7473,1.7517,1.756,1.762,1.7683,1.7733,1.7752,1.7771,1.7757,1.7781,1.7806,1.7812,1.7818,1.7811,1.7761,1.7761,1.7752,1.7751,1.7751]}]]